• In Romania
  • List of Countries
  • For 7 days
  • Water Temperature
  • Satellite Maps
  • Weather Map
  • Weather Widgets
  • user-avatar
    Login

    Hourly Weather Ertil

    Today, 22 July, Sunday

    Time Temperature Precipitation Wind Pressure Humidity
    00:00 +20°C° 0 mm 2 mps 740 mmHg 90%
    01:00 +19°C° 0 mm 2 mps 740 mmHg 91%
    02:00 +19°C° 0 mm 2 mps 740 mmHg 93%
    03:00 +19°C° 0 mm 2 mps 739 mmHg 95%
    04:00 +19°C° 0.1 mm 2 mps 740 mmHg 94%
    05:00 +19°C° 0.1 mm 2 mps 740 mmHg 94%
    06:00 +19°C° 0.1 mm 3 mps 740 mmHg 93%
    07:00 +21°C° 0.4 mm 3 mps 740 mmHg 88%
    08:00 +22°C° 0.4 mm 3 mps 740 mmHg 84%
    09:00 +25°C° 0.4 mm 4 mps 740 mmHg 79%
    10:00 +25°C° 0.9 mm 4 mps 740 mmHg 76%
    11:00 +26°C° 0.9 mm 4 mps 740 mmHg 73%
    12:00 +27°C° 0.9 mm 4 mps 740 mmHg 70%
    13:00 +27°C° 0.9 mm 4 mps 740 mmHg 69%
    14:00 +27°C° 0.9 mm 4 mps 739 mmHg 69%
    15:00 +27°C° 0.9 mm 4 mps 739 mmHg 69%
    16:00 +27°C° 0.6 mm 4 mps 739 mmHg 72%
    17:00 +26°C° 0.6 mm 4 mps 739 mmHg 75%
    18:00 +26°C° 0.6 mm 4 mps 739 mmHg 79%
    19:00 +25°C° 0.6 mm 4 mps 739 mmHg 83%
    20:00 +23°C° 0.6 mm 4 mps 739 mmHg 87%
    21:00 +21°C° 0.6 mm 4 mps 739 mmHg 91%
    22:00 +21°C° 0.3 mm 4 mps 739 mmHg 92%
    23:00 +20°C° 0.3 mm 4 mps 739 mmHg 93%

    Tomorrow, 23 July, Monday

    Time Temperature Precipitation Wind Pressure Humidity
    00:00 +20°C° 0.3 mm 5 mps 739 mmHg 94%
    01:00 +20°C° 0.3 mm 4 mps 739 mmHg 94%
    02:00 +20°C° 0.3 mm 4 mps 740 mmHg 95%
    03:00 +19°C° 0.3 mm 4 mps 740 mmHg 95%
    04:00 +19°C° 0.2 mm 5 mps 740 mmHg 94%
    05:00 +19°C° 0.2 mm 5 mps 740 mmHg 94%
    06:00 +19°C° 0.2 mm 5 mps 740 mmHg 93%
    07:00 +20°C° 0.2 mm 5 mps 740 mmHg 91%
    08:00 +21°C° 0.2 mm 5 mps 740 mmHg 89%
    09:00 +21°C° 0.2 mm 5 mps 740 mmHg 87%
    10:00 +23°C° 0.8 mm 5 mps 740 mmHg 83%
    11:00 +25°C° 0.8 mm 5 mps 740 mmHg 79%
    12:00 +27°C° 0.8 mm 5 mps 740 mmHg 75%
    13:00 +27°C° 1.2 mm 4 mps 740 mmHg 73%
    14:00 +28°C° 1.2 mm 4 mps 740 mmHg 71%
    15:00 +28°C° 1.2 mm 4 mps 740 mmHg 69%
    16:00 +28°C° 0.8 mm 4 mps 740 mmHg 72%
    17:00 +27°C° 0.8 mm 4 mps 741 mmHg 76%
    18:00 +27°C° 0.8 mm 4 mps 741 mmHg 80%
    19:00 +25°C° 0.7 mm 4 mps 741 mmHg 83%
    20:00 +23°C° 0.7 mm 4 mps 741 mmHg 85%
    21:00 +22°C° 0.7 mm 4 mps 742 mmHg 88%
    22:00 +21°C° 0.1 mm 4 mps 742 mmHg 90%
    23:00 +21°C° 0.1 mm 4 mps 742 mmHg 91%

    Day after tomorrow, 24 July, Tuesday

    Time Temperature Precipitation Wind Pressure Humidity
    00:00 +20°C° 0.1 mm 4 mps 742 mmHg 92%
    01:00 +20°C° 0 mm 4 mps 742 mmHg 93%
    02:00 +19°C° 0 mm 3 mps 742 mmHg 93%
    03:00 +19°C° 0 mm 3 mps 742 mmHg 94%
    04:00 +19°C° 0.1 mm 3 mps 743 mmHg 93%
    05:00 +19°C° 0.1 mm 3 mps 743 mmHg 93%
    06:00 +20°C° 0.1 mm 3 mps 743 mmHg 92%
    07:00 +21°C° 0 mm 3 mps 743 mmHg 88%
    08:00 +22°C° 0 mm 4 mps 744 mmHg 85%
    09:00 +23°C° 0 mm 4 mps 744 mmHg 82%
    10:00 +23°C° 0.4 mm 4 mps 744 mmHg 80%
    11:00 +25°C° 0.4 mm 5 mps 744 mmHg 78%
    12:00 +25°C° 0.4 mm 5 mps 744 mmHg 77%
    13:00 +25°C° 0.4 mm 5 mps 744 mmHg 77%
    14:00 +25°C° 0.4 mm 5 mps 745 mmHg 77%
    15:00 +25°C° 0.4 mm 5 mps 745 mmHg 77%
    16:00 +25°C° 0.4 mm 5 mps 745 mmHg 77%
    17:00 +25°C° 0.4 mm 4 mps 745 mmHg 76%
    18:00 +25°C° 0.4 mm 4 mps 745 mmHg 76%
    19:00 +23°C° 0.2 mm 4 mps 745 mmHg 76%
    20:00 +22°C° 0.2 mm 3 mps 745 mmHg 77%
    21:00 +21°C° 0.2 mm 3 mps 745 mmHg 77%
    22:00 +21°C° 0 mm 4 mps 745 mmHg 75%
    23:00 +21°C° 0 mm 4 mps 745 mmHg 72%

    25 July, Wednesday

    Time Temperature Precipitation Wind Pressure Humidity
    00:00 +21°C° 0 mm 4 mps 745 mmHg 70%
    01:00 +20°C° 0 mm 5 mps 745 mmHg 68%
    02:00 +20°C° 0 mm 5 mps 745 mmHg 65%
    03:00 +20°C° 0 mm 5 mps 745 mmHg 63%
    04:00 +20°C° 0 mm 5 mps 746 mmHg 63%
    05:00 +19°C° 0 mm 5 mps 746 mmHg 63%
    06:00 +19°C° 0 mm 5 mps 746 mmHg 63%
    07:00 +20°C° 0 mm 5 mps 746 mmHg 62%
    08:00 +21°C° 0 mm 6 mps 747 mmHg 62%
    09:00 +22°C° 0 mm 6 mps 747 mmHg 62%
    10:00 +23°C° 0 mm 6 mps 747 mmHg 60%
    11:00 +24°C° 0 mm 6 mps 747 mmHg 58%
    12:00 +26°C° 0 mm 6 mps 747 mmHg 55%
    13:00 +26°C° 0 mm 6 mps 747 mmHg 56%
    14:00 +27°C° 0 mm 6 mps 747 mmHg 57%
    15:00 +27°C° 0 mm 5 mps 747 mmHg 58%
    16:00 +27°C° 0 mm 5 mps 747 mmHg 59%
    17:00 +27°C° 0 mm 5 mps 747 mmHg 61%
    18:00 +27°C° 0 mm 4 mps 748 mmHg 62%
    19:00 +26°C° 0 mm 5 mps 748 mmHg 64%
    20:00 +23°C° 0 mm 5 mps 748 mmHg 66%
    21:00 +22°C° 0 mm 5 mps 748 mmHg 67%
    22:00 +21°C° 0 mm 5 mps 748 mmHg 66%
    23:00 +21°C° 0 mm 4 mps 748 mmHg 66%

    26 July, Thursday

    Time Temperature Precipitation Wind Pressure Humidity
    00:00 +20°C° 0 mm 4 mps 748 mmHg 65%
    01:00 +21°C° 0 mm 4 mps 748 mmHg 63%
    02:00 +21°C° 0 mm 5 mps 748 mmHg 60%
    03:00 +22°C° 0 mm 5 mps 748 mmHg 58%
    04:00 +22°C° 0 mm 5 mps 748 mmHg 60%
    05:00 +21°C° 0 mm 5 mps 748 mmHg 63%
    06:00 +21°C° 0 mm 5 mps 748 mmHg 66%
    07:00 +22°C° 0 mm 5 mps 748 mmHg 65%
    08:00 +23°C° 0 mm 5 mps 749 mmHg 64%
    09:00 +26°C° 0 mm 6 mps 749 mmHg 63%
    10:00 +27°C° 0 mm 6 mps 749 mmHg 61%
    11:00 +28°C° 0 mm 6 mps 749 mmHg 59%
    12:00 +29°C° 0 mm 6 mps 749 mmHg 57%
    13:00 +30°C° 0 mm 6 mps 749 mmHg 55%
    14:00 +32°C° 0 mm 6 mps 749 mmHg 54%
    15:00 +32°C° 0 mm 6 mps 749 mmHg 53%
    16:00 +32°C° 0 mm 5 mps 749 mmHg 56%
    17:00 +30°C° 0 mm 5 mps 749 mmHg 60%
    18:00 +30°C° 0 mm 4 mps 749 mmHg 63%
    19:00 +28°C° 0 mm 4 mps 750 mmHg 65%
    20:00 +27°C° 0 mm 4 mps 750 mmHg 68%
    21:00 +25°C° 0 mm 5 mps 750 mmHg 70%
    22:00 +23°C° 0 mm 4 mps 750 mmHg 70%
    23:00 +23°C° 0 mm 4 mps 750 mmHg 71%

    27 July, Friday

    Time Temperature Precipitation Wind Pressure Humidity
    00:00 +22°C° 0 mm 4 mps 750 mmHg 71%
    01:00 +21°C° 0 mm 4 mps 750 mmHg 72%
    02:00 +21°C° 0 mm 4 mps 750 mmHg 73%
    03:00 +20°C° 0 mm 4 mps 750 mmHg 74%
    04:00 +20°C° 0 mm 4 mps 751 mmHg 76%
    05:00 +20°C° 0 mm 4 mps 751 mmHg 77%
    06:00 +20°C° 0 mm 4 mps 751 mmHg 79%
    07:00 +22°C° 0 mm 5 mps 751 mmHg 74%
    08:00 +25°C° 0 mm 5 mps 751 mmHg 70%
    09:00 +26°C° 0 mm 5 mps 751 mmHg 65%
    10:00 +28°C° 0 mm 5 mps 751 mmHg 60%
    11:00 +29°C° 0 mm 6 mps 751 mmHg 55%
    12:00 +30°C° 0 mm 6 mps 751 mmHg 50%
    13:00 +30°C° 0 mm 6 mps 751 mmHg 50%
    14:00 +32°C° 0 mm 6 mps 750 mmHg 49%
    15:00 +32°C° 0 mm 6 mps 750 mmHg 49%
    16:00 +30°C° 0 mm 5 mps 750 mmHg 54%
    17:00 +30°C° 0 mm 4 mps 750 mmHg 58%
    18:00 +29°C° 0 mm 4 mps 750 mmHg 63%
    19:00 +27°C° 0 mm 4 mps 750 mmHg 67%
    20:00 +26°C° 0 mm 4 mps 750 mmHg 71%
    21:00 +23°C° 0 mm 4 mps 750 mmHg 74%
    22:00 +23°C° 0 mm 4 mps 750 mmHg 75%
    23:00 +22°C° 0 mm 4 mps 750 mmHg 75%
    Show more